Regional Weather Roundup
Issued by NWS

Home | Current Version | Previous Version | Graphics & Text | Print | Product List | Glossary On
Versions: 1 2 3 4 5 6 7 8 9 10 11 12 13 14 15 16 17 18 19 20 21 22 23 24 25 26 27 28 29 30 31 32 33 34 35 36 37 38 39 40 41 42 43 44 45 46 47 48 49 50
000
ASUS43 KBIS 280601
RWRND

NORTH DAKOTA REGIONAL WEATHER ROUNDUP
NATIONAL WEATHER SERVICE BISMARCK ND
100 AM CDT SAT MAR 28 2015

NOTE: "FAIR" INDICATES FEW OR NO CLOUDS BELOW 12,000 FEET WITH NO
SIGNIFICANT WEATHER AND/OR OBSTRUCTIONS TO VISIBILITY.


NDZ001>003-009>011-017-280700-
NORTHWEST NORTH DAKOTA

CITY           SKY/WX    TMP DP  RH WIND       PRES   REMARKS
WILLISTON      CLEAR     37  34  89 CALM      29.91S
6HR MIN TEMP:  37; 6HR MAX TEMP:  60;

MINOT          CLOUDY    32  29  88 E3        29.96R
MINOT AFB      MOCLDY    32  32  99 E7        29.95S
$$

NDZ018>021-031>035-040>046-280700-
SOUTHWEST NORTH DAKOTA

CITY           SKY/WX    TMP DP  RH WIND       PRES   REMARKS
BISMARCK       PTCLDY    30  28  92 E7        29.96S
6HR MIN TEMP:  30; 6HR MAX TEMP:  50;

DICKINSON      CLEAR     33  28  81 S6        29.91S
GARRISON         N/A     33  30  88 CALM      29.95R
6HR MIN TEMP:  32; 6HR MAX TEMP:  52;

HETTINGER ARPT CLEAR     31  27  85 CALM      29.96S
$$

NDZ004>008-012>016-024-026-027-054-280700-
NORTHEAST NORTH DAKOTA

CITY           SKY/WX    TMP DP  RH WIND       PRES   REMARKS
GRAND FORKS    CLEAR     25  21  85 S5        30.11S WCI  19
DEVILS LAKE    CLOUDY    28  25  86 SE16      30.03S WCI  17
$$

NDZ022-023-025-028>030-036>039-047>053-280700-
SOUTHEAST NORTH DAKOTA

CITY           SKY/WX    TMP DP  RH WIND       PRES   REMARKS
FARGO          CLOUDY    32  18  56 S8        30.11F
6HR MIN TEMP:  29; 6HR MAX TEMP:  32; 6HR PCP: TRACE;

JAMESTOWN      CLOUDY    29  28  96 SE14      30.02F FOG     WCI  18
$$



USA.gov is the U.S. government's official web portal to all federal, state and local government web resources and services.